UTA112 USSS-USRR

Flight info

Callsign UTA112
Flight time N/A
Altitude 35000
Route DOSUM6H DOSUM L992 NAMOL T376 UTORA A925 HMN L870 STELA KOVER1T
Aircraft B738/M-SDE2E3FGHIRWXY/LB1

Departure

Time N/A
Airport Koltsovo Airport (USSS)

Arrival

Time 2026-04-30 14:54
Airport Surgut International Airport (USRR)
Time Latitude Longitude Altitude Speed Heading
2026-04-30 14:16 60.17756 67.00185 35101 ft 446 kts 44°
2026-04-30 14:16 60.19727 67.04873 35104 ft 444 kts 44°
2026-04-30 14:17 60.23635 67.14121 35147 ft 441 kts 44°
2026-04-30 14:17 60.27619 67.23472 35020 ft 442 kts 44°
2026-04-30 14:18 60.31359 67.32502 35130 ft 438 kts 45°
2026-04-30 14:18 60.36874 67.46294 35138 ft 435 kts 44°
2026-04-30 14:19 60.42680 67.60260 35146 ft 430 kts 44°
2026-04-30 14:20 60.46652 67.69666 35177 ft 452 kts 44°
2026-04-30 14:20 60.48704 67.74603 35171 ft 465 kts 44°
2026-04-30 14:20 60.52934 67.84990 35168 ft 489 kts 45°
2026-04-30 14:21 60.55088 67.90331 35166 ft 500 kts 45°
2026-04-30 14:21 60.57314 67.95870 35171 ft 511 kts 46°
2026-04-30 14:21 60.61893 68.07263 35177 ft 530 kts 46°
2026-04-30 14:22 60.64241 68.13117 35172 ft 539 kts 46°
2026-04-30 14:22 60.69052 68.25169 35168 ft 555 kts 46°
2026-04-30 14:22 60.71491 68.31311 35166 ft 560 kts 46°
2026-04-30 14:23 60.81317 68.56160 35142 ft 553 kts 46°
2026-04-30 14:24 60.88494 68.74443 35155 ft 547 kts 47°
2026-04-30 14:25 60.97971 68.98847 34986 ft 537 kts 47°
2026-04-30 14:26 61.02260 69.11182 33609 ft 534 kts 58°
2026-04-30 14:26 61.03836 69.18104 32643 ft 534 kts 67°
2026-04-30 14:26 61.05716 69.32943 30857 ft 529 kts 78°
2026-04-30 14:27 61.06459 69.40271 30379 ft 515 kts 78°
2026-04-30 14:27 61.07195 69.47414 29903 ft 504 kts 77°
2026-04-30 14:27 61.07938 69.54429 29441 ft 493 kts 77°
2026-04-30 14:28 61.09408 69.68198 28566 ft 501 kts 77°
2026-04-30 14:28 61.10166 69.75188 28070 ft 511 kts 77°
2026-04-30 14:28 61.10951 69.82456 27567 ft 505 kts 77°
2026-04-30 14:28 61.11704 69.89514 27090 ft 500 kts 77°
2026-04-30 14:29 61.13179 70.03424 26155 ft 490 kts 77°
2026-04-30 14:29 61.14539 70.17008 25404 ft 475 kts 78°
2026-04-30 14:30 61.16425 70.36735 24082 ft 460 kts 79°
2026-04-30 14:31 61.17646 70.49596 23191 ft 450 kts 78°
2026-04-30 14:31 61.18835 70.62202 22305 ft 441 kts 78°
2026-04-30 14:31 61.19414 70.68391 21871 ft 436 kts 79°
2026-04-30 14:32 61.20550 70.80624 21002 ft 428 kts 79°
2026-04-30 14:32 61.21107 70.86664 20579 ft 424 kts 79°
2026-04-30 14:32 61.21656 70.92645 20147 ft 420 kts 79°
2026-04-30 14:33 61.22178 70.98569 19853 ft 414 kts 79°
2026-04-30 14:33 61.23147 71.10240 19359 ft 410 kts 80°
2026-04-30 14:33 61.23622 71.16051 19039 ft 407 kts 80°
2026-04-30 14:34 61.24094 71.21835 18651 ft 403 kts 80°
2026-04-30 14:34 61.24552 71.27467 18253 ft 399 kts 79°
2026-04-30 14:34 61.24994 71.32907 17858 ft 396 kts 80°
2026-04-30 14:34 61.25464 71.38721 17436 ft 393 kts 80°
2026-04-30 14:35 61.26353 71.49812 16602 ft 387 kts 80°
2026-04-30 14:35 61.26787 71.55267 16209 ft 385 kts 80°
2026-04-30 14:35 61.27219 71.60727 15796 ft 381 kts 80°
2026-04-30 14:36 61.27647 71.66159 15399 ft 378 kts 80°
2026-04-30 14:36 61.28069 71.71534 14995 ft 375 kts 80°
2026-04-30 14:36 61.28491 71.76862 14657 ft 370 kts 79°
2026-04-30 14:36 61.28960 71.82048 14440 ft 362 kts 78°
2026-04-30 14:37 61.29451 71.87144 14092 ft 358 kts 78°
2026-04-30 14:37 61.29937 71.92188 13733 ft 355 kts 78°
2026-04-30 14:37 61.30413 71.97213 13354 ft 353 kts 79°
2026-04-30 14:37 61.30878 72.02219 12980 ft 351 kts 79°
2026-04-30 14:38 61.31336 72.07188 12592 ft 349 kts 79°
2026-04-30 14:38 61.31810 72.12132 12247 ft 346 kts 78°
2026-04-30 14:38 61.32303 72.17011 11897 ft 343 kts 78°
2026-04-30 14:38 61.32796 72.21843 11533 ft 341 kts 78°
2026-04-30 14:39 61.33287 72.26665 11165 ft 338 kts 78°
2026-04-30 14:39 61.33771 72.31446 10792 ft 336 kts 78°
2026-04-30 14:39 61.34245 72.36161 10596 ft 328 kts 78°
2026-04-30 14:40 61.35148 72.45224 10283 ft 311 kts 78°
2026-04-30 14:40 61.35579 72.49578 10148 ft 302 kts 78°
2026-04-30 14:40 61.36000 72.53856 9880 ft 299 kts 78°
2026-04-30 14:40 61.36416 72.58094 9610 ft 298 kts 78°
2026-04-30 14:41 61.36828 72.62310 9342 ft 296 kts 79°
2026-04-30 14:41 61.37228 72.66448 9066 ft 294 kts 79°
2026-04-30 14:41 61.37633 72.70616 8788 ft 293 kts 78°
2026-04-30 14:41 61.38037 72.74778 8505 ft 292 kts 78°
2026-04-30 14:42 61.38434 72.78924 8226 ft 291 kts 79°
2026-04-30 14:42 61.38831 72.83051 7946 ft 289 kts 78°
2026-04-30 14:42 61.39219 72.87104 7668 ft 288 kts 79°
2026-04-30 14:42 61.39599 72.91083 7395 ft 287 kts 79°
2026-04-30 14:43 61.39978 72.95074 7123 ft 285 kts 79°
2026-04-30 14:43 61.40361 72.99116 6851 ft 283 kts 79°
2026-04-30 14:43 61.40740 73.03136 6575 ft 282 kts 79°
2026-04-30 14:43 61.41116 73.07140 6295 ft 281 kts 79°
2026-04-30 14:44 61.41482 73.11052 6031 ft 280 kts 79°
2026-04-30 14:44 61.41861 73.15108 5752 ft 278 kts 79°
2026-04-30 14:44 61.42106 73.17730 5572 ft 277 kts 79°
2026-04-30 14:44 61.42519 73.22180 5268 ft 276 kts 79°
2026-04-30 14:45 61.42882 73.26097 5000 ft 275 kts 78°
2026-04-30 14:45 61.43244 73.30010 4739 ft 273 kts 78°
2026-04-30 14:45 61.43600 73.33886 4474 ft 272 kts 78°
2026-04-30 14:45 61.43950 73.37716 4213 ft 271 kts 78°
2026-04-30 14:46 61.44302 73.41575 3950 ft 270 kts 78°
2026-04-30 14:46 61.44652 73.45413 3696 ft 268 kts 78°
2026-04-30 14:46 61.44986 73.49156 3438 ft 266 kts 79°
2026-04-30 14:46 61.45207 73.51662 3262 ft 265 kts 79°
2026-04-30 14:47 61.45644 73.56555 2923 ft 263 kts 78°
2026-04-30 14:47 61.45984 73.60324 2569 ft 266 kts 79°
2026-04-30 14:47 61.46220 73.64151 2281 ft 265 kts 94°
2026-04-30 14:47 61.45631 73.67691 2194 ft 255 kts 125°
2026-04-30 14:48 61.44519 73.70509 2166 ft 248 kts 136°
2026-04-30 14:48 61.43336 73.73049 2156 ft 241 kts 137°
2026-04-30 14:48 61.42113 73.75312 2152 ft 227 kts 154°
2026-04-30 14:48 61.40689 73.76053 2166 ft 200 kts 186°
2026-04-30 14:49 61.39401 73.75440 2083 ft 183 kts 208°
2026-04-30 14:49 61.38382 73.74084 2004 ft 166 kts 227°
2026-04-30 14:49 61.37670 73.72247 1999 ft 161 kts 236°
2026-04-30 14:49 61.37000 73.70421 2000 ft 161 kts 236°
2026-04-30 14:50 61.35630 73.66678 2003 ft 163 kts 236°
2026-04-30 14:50 61.34944 73.64803 1994 ft 162 kts 236°
2026-04-30 14:51 61.34500 73.60607 1878 ft 144 kts 269°
2026-04-30 14:51 61.34470 73.58629 1689 ft 133 kts 270°
2026-04-30 14:51 61.34444 73.54775 1338 ft 136 kts 270°
2026-04-30 14:52 61.34435 73.52807 1158 ft 135 kts 270°
2026-04-30 14:52 61.34419 73.48902 800 ft 135 kts 271°
2026-04-30 14:52 61.34413 73.46938 627 ft 135 kts 270°
2026-04-30 14:53 61.34396 73.43026 267 ft 136 kts 270°
2026-04-30 14:53 61.34393 73.41142 212 ft 115 kts 269°
2026-04-30 14:54 61.34386 73.39333 214 ft 18 kts 270°
2026-04-30 14:54 61.34352 73.38915 204 ft 11 kts 208°
2026-04-30 14:55 61.34200 73.38912 213 ft 11 kts 160°
2026-04-30 14:55 61.34175 73.39043 213 ft 11 kts 89°
2026-04-30 14:55 61.34176 73.39340 209 ft 10 kts 89°
2026-04-30 14:56 61.34177 73.39542 215 ft 10 kts 89°
2026-04-30 14:56 61.34178 73.39836 210 ft 6 kts 91°
2026-04-30 14:57 61.34179 73.39926 210 ft 7 kts 90°
2026-04-30 14:57 61.34178 73.39972 207 ft 0 kts 90°
2026-04-30 15:01 61.34184 73.40231 211 ft 16 kts 97°
2026-04-30 15:01 61.34180 73.40322 212 ft 16 kts 90°
2026-04-30 15:01 61.34181 73.40707 212 ft 12 kts 91°
2026-04-30 15:02 61.34181 73.40807 207 ft 8 kts 88°
2026-04-30 15:02 61.34182 73.40863 211 ft 15 kts 89°